Time,TemperatureF,DewpointF,PressureIn,WindDirection,WindDirectionDegrees,WindSpeedMPH,WindSpeedGustMPH,Humidity,HourlyPrecipIn,Conditions,Clouds,dailyrainin,SoftwareType,DateUTC
2013-07-02 00:01:00,56.0,-99.9,29.89,ESE,112,2.0,5.0,-999,-99.99,,,-99.99,,2013-07-02 07:01:00,
2013-07-02 00:12:00,56.0,-99.9,29.89,SSE,147,2.0,5.0,-999,-99.99,,,-99.99,,2013-07-02 07:12:00,
2013-07-02 00:34:00,55.0,-99.9,29.89,NE,46,3.0,8.0,-999,-99.99,,,-99.99,,2013-07-02 07:34:00,
2013-07-02 00:44:00,55.0,-99.9,29.88,ENE,58,5.0,11.0,-999,-99.99,,,-99.99,,2013-07-02 07:44:00,
2013-07-02 00:53:00,55.0,-99.9,29.88,NNE,28,3.0,8.0,-999,-99.99,,,-99.99,,2013-07-02 07:53:00,
2013-07-02 01:02:00,55.0,-99.9,29.89,NNE,31,4.0,8.0,-999,-99.99,,,-99.99,,2013-07-02 08:02:00,
2013-07-02 01:12:00,55.0,-99.9,29.88,NE,38,3.0,11.0,-999,-99.99,,,-99.99,,2013-07-02 08:12:00,
2013-07-02 01:33:00,55.0,-99.9,29.88,NE,36,5.0,10.0,-999,-99.99,,,-99.99,,2013-07-02 08:33:00,
2013-07-02 01:44:00,55.0,-99.9,29.88,NE,50,4.0,9.0,-999,-99.99,,,-99.99,,2013-07-02 08:44:00,
2013-07-02 01:53:00,55.0,-99.9,29.88,NE,37,7.0,13.0,-999,-99.99,,,-99.99,,2013-07-02 08:53:00,
2013-07-02 02:02:00,55.0,-99.9,29.88,NNE,31,6.0,11.0,-999,-99.99,,,-99.99,,2013-07-02 09:02:00,
2013-07-02 02:11:00,55.0,-99.9,29.87,NE,38,3.0,13.0,-999,-99.99,,,-99.99,,2013-07-02 09:11:00,
2013-07-02 02:33:00,55.0,-99.9,29.86,NE,55,5.0,10.0,-999,-99.99,,,-99.99,,2013-07-02 09:33:00,
2013-07-02 02:43:00,55.0,-99.9,29.86,NE,37,7.0,11.0,-999,-99.99,,,-99.99,,2013-07-02 09:43:00,
2013-07-02 02:52:00,55.0,-99.9,29.86,NE,40,6.0,13.0,-999,-99.99,,,-99.99,,2013-07-02 09:52:00,
2013-07-02 03:01:00,55.0,-99.9,29.86,NNE,20,4.0,11.0,-999,-99.99,,,-99.99,,2013-07-02 10:01:00,
2013-07-02 03:11:00,55.0,-99.9,29.86,NE,48,5.0,13.0,-999,-99.99,,,-99.99,,2013-07-02 10:11:00,
2013-07-02 03:33:00,55.0,-99.9,29.85,NE,43,6.0,13.0,-999,-99.99,,,-99.99,,2013-07-02 10:33:00,
2013-07-02 03:44:00,55.0,-99.9,29.85,NE,36,8.0,17.0,-999,-99.99,,,-99.99,,2013-07-02 10:44:00,
2013-07-02 03:52:00,55.0,-99.9,29.85,NE,43,5.0,11.0,-999,-99.99,,,-99.99,,2013-07-02 10:52:00,
2013-07-02 04:02:00,55.0,-99.9,29.85,NE,45,2.0,9.0,-999,-99.99,,,-99.99,,2013-07-02 11:02:00,
2013-07-02 04:11:00,55.0,-99.9,29.85,NE,44,6.0,11.0,-999,-99.99,,,-99.99,,2013-07-02 11:11:00,
2013-07-02 04:33:00,55.0,-99.9,29.85,NE,53,6.0,12.0,-999,-99.99,,,-99.99,,2013-07-02 11:33:00,
2013-07-02 04:42:00,55.0,-99.9,29.85,NE,44,5.0,12.0,-999,-99.99,,,-99.99,,2013-07-02 11:42:00,
2013-07-02 04:52:00,55.0,-99.9,29.84,ESE,108,2.0,11.0,-999,-99.99,,,-99.99,,2013-07-02 11:52:00,
2013-07-02 05:01:00,55.0,-99.9,29.85,NNE,18,5.0,13.0,-999,-99.99,,,-99.99,,2013-07-02 12:01:00,
2013-07-02 05:11:00,55.0,-99.9,29.84,NE,53,6.0,14.0,-999,-99.99,,,-99.99,,2013-07-02 12:11:00,
2013-07-02 05:43:00,55.0,-99.9,29.83,ENE,73,2.0,11.0,-999,-99.99,,,-99.99,,2013-07-02 12:43:00,
2013-07-02 05:52:00,55.0,-99.9,29.84,NE,42,8.0,13.0,-999,-99.99,,,-99.99,,2013-07-02 12:52:00,
2013-07-02 06:01:00,55.0,-99.9,29.86,NE,51,4.0,9.0,-999,-99.99,,,-99.99,,2013-07-02 13:01:00,
2013-07-02 06:11:00,55.0,-99.9,29.86,North,4,2.0,6.0,-999,-99.99,,,-99.99,,2013-07-02 13:11:00,
2013-07-02 06:43:00,55.0,-99.9,29.87,East,92,3.0,9.0,-999,-99.99,,,-99.99,,2013-07-02 13:43:00,
2013-07-02 07:02:00,56.0,-99.9,29.86,NE,37,7.0,11.0,-999,-99.99,,,-99.99,,2013-07-02 14:02:00,
2013-07-02 07:33:00,56.0,-99.9,29.87,NNE,27,6.0,12.0,-999,-99.99,,,-99.99,,2013-07-02 14:33:00,
2013-07-02 07:43:00,56.0,-99.9,29.88,NNE,26,4.0,11.0,-999,-99.99,,,-99.99,,2013-07-02 14:43:00,
2013-07-02 07:53:00,57.0,-99.9,29.88,ENE,57,2.0,12.0,-999,-99.99,,,-99.99,,2013-07-02 14:53:00,
2013-07-02 08:02:00,56.0,-99.9,29.88,NW,310,3.0,9.0,-999,-99.99,,,-99.99,,2013-07-02 15:02:00,
2013-07-02 08:12:00,56.0,-99.9,29.88,West,281,4.0,7.0,-999,-99.99,,,-99.99,,2013-07-02 15:12:00,
2013-07-02 08:22:00,56.0,-99.9,29.88,West,281,4.0,7.0,-999,-99.99,,,-99.99,,2013-07-02 15:22:00,
2013-07-02 08:33:00,57.0,-99.9,29.89,East,100,1.0,9.0,-999,-99.99,,,-99.99,,2013-07-02 15:33:00,
2013-07-02 08:44:00,58.0,-99.9,29.90,SSW,197,3.0,11.0,-999,-99.99,,,-99.99,,2013-07-02 15:44:00,
2013-07-02 09:01:00,58.0,-99.9,29.90,WNW,288,4.0,9.0,-999,-99.99,,,-99.99,,2013-07-02 16:01:00,
2013-07-02 09:12:00,58.0,-99.9,29.90,North,353,4.0,8.0,-999,-99.99,,,-99.99,,2013-07-02 16:12:00,
2013-07-02 09:33:00,58.0,-99.9,29.91,NW,307,4.0,13.0,-999,-99.99,,,-99.99,,2013-07-02 16:33:00,
2013-07-02 09:43:00,58.0,-99.9,29.94,WNW,291,7.0,11.0,-999,-99.99,,,-99.99,,2013-07-02 16:43:00,
2013-07-02 10:12:00,59.0,-99.9,29.93,WNW,300,6.0,10.0,-999,-99.99,,,-99.99,,2013-07-02 17:12:00,
2013-07-02 10:43:00,59.0,-99.9,29.93,WNW,294,9.0,14.0,-999,-99.99,,,-99.99,,2013-07-02 17:43:00,
2013-07-02 11:23:00,59.0,-99.9,29.93,WNW,288,11.0,17.0,-999,-99.99,,,-99.99,,2013-07-02 18:23:00,
2013-07-02 11:34:00,59.0,-99.9,29.93,WNW,301,7.0,12.0,-999,-99.99,,,-99.99,,2013-07-02 18:34:00,
2013-07-02 11:43:00,60.0,-99.9,29.92,WNW,294,7.0,13.0,-999,-99.99,,,-99.99,,2013-07-02 18:43:00,
2013-07-02 11:53:00,59.0,-99.9,29.92,WNW,298,9.0,16.0,-999,-99.99,,,-99.99,,2013-07-02 18:53:00,
2013-07-02 12:01:00,59.0,-99.9,29.92,NW,304,9.0,16.0,-999,-99.99,,,-99.99,,2013-07-02 19:01:00,
2013-07-02 12:12:00,59.0,-99.9,29.92,WNW,288,9.0,14.0,-999,-99.99,,,-99.99,,2013-07-02 19:12:00,
2013-07-02 12:34:00,59.0,-99.9,29.92,WNW,300,8.0,19.0,-999,-99.99,,,-99.99,,2013-07-02 19:34:00,
2013-07-02 12:43:00,60.0,-99.9,29.91,NW,321,6.0,16.0,-999,-99.99,,,-99.99,,2013-07-02 19:43:00,
2013-07-02 13:02:00,60.0,-99.9,29.91,NW,318,5.0,13.0,-999,-99.99,,,-99.99,,2013-07-02 20:02:00,
2013-07-02 13:11:00,60.0,-99.9,29.91,NW,320,5.0,12.0,-999,-99.99,,,-99.99,,2013-07-02 20:11:00,
2013-07-02 13:33:00,60.0,-99.9,29.91,WNW,295,8.0,16.0,-999,-99.99,,,-99.99,,2013-07-02 20:33:00,
2013-07-02 13:43:00,59.0,-99.9,29.91,WNW,302,9.0,16.0,-999,-99.99,,,-99.99,,2013-07-02 20:43:00,
2013-07-02 13:52:00,60.0,-99.9,29.91,WNW,301,8.0,16.0,-999,-99.99,,,-99.99,,2013-07-02 20:52:00,
2013-07-02 14:03:00,60.0,-99.9,29.91,NW,315,10.0,17.0,-999,-99.99,,,-99.99,,2013-07-02 21:03:00,
2013-07-02 14:11:00,59.0,-99.9,29.90,NW,310,11.0,20.0,-999,-99.99,,,-99.99,,2013-07-02 21:11:00,
2013-07-02 14:33:00,59.0,-99.9,29.90,NW,305,10.0,19.0,-999,-99.99,,,-99.99,,2013-07-02 21:33:00,
2013-07-02 14:52:00,59.0,-99.9,29.89,NW,318,8.0,19.0,-999,-99.99,,,-99.99,,2013-07-02 21:52:00,
2013-07-02 15:34:00,59.0,-99.9,29.89,WNW,302,13.0,19.0,-999,-99.99,,,-99.99,,2013-07-02 22:34:00,
2013-07-02 15:43:00,59.0,-99.9,29.90,NW,312,13.0,22.0,-999,-99.99,,,-99.99,,2013-07-02 22:43:00,
2013-07-02 15:53:00,60.0,-99.9,29.89,NW,308,11.0,19.0,-999,-99.99,,,-99.99,,2013-07-02 22:53:00,
2013-07-02 16:02:00,60.0,-99.9,29.89,NW,321,11.0,21.0,-999,-99.99,,,-99.99,,2013-07-02 23:02:00,
2013-07-02 16:12:00,60.0,-99.9,29.89,NW,310,9.0,19.0,-999,-99.99,,,-99.99,,2013-07-02 23:12:00,
2013-07-02 16:33:00,59.0,-99.9,29.88,NW,311,11.0,17.0,-999,-99.99,,,-99.99,,2013-07-02 23:33:00,
2013-07-02 16:44:00,59.0,-99.9,29.88,NW,312,10.0,19.0,-999,-99.99,,,-99.99,,2013-07-02 23:44:00,
2013-07-02 16:52:00,59.0,-99.9,29.89,NW,316,4.0,14.0,-999,-99.99,,,-99.99,,2013-07-02 23:52:00,
2013-07-02 17:02:00,60.0,-99.9,29.90,NW,318,3.0,11.0,-999,-99.99,,,-99.99,,2013-07-03 00:02:00,
2013-07-02 17:33:00,60.0,-99.9,29.90,WNW,284,4.0,8.0,-999,-99.99,,,-99.99,,2013-07-03 00:33:00,
2013-07-02 17:44:00,60.0,-99.9,29.91,WNW,288,4.0,8.0,-999,-99.99,,,-99.99,,2013-07-03 00:44:00,
2013-07-02 18:01:00,60.0,-99.9,29.92,WNW,287,7.0,10.0,-999,-99.99,,,-99.99,,2013-07-03 01:01:00,
2013-07-02 18:33:00,59.0,-99.9,29.92,WNW,302,6.0,9.0,-999,-99.99,,,-99.99,,2013-07-03 01:33:00,
2013-07-02 18:43:00,59.0,-99.9,29.92,WNW,294,8.0,12.0,-999,-99.99,,,-99.99,,2013-07-03 01:43:00,
2013-07-02 19:00:00,59.0,-99.9,29.92,WNW,286,9.0,11.0,-999,-99.99,,,-99.99,,2013-07-03 02:00:00,
2013-07-02 19:06:00,58.0,-99.9,29.91,WNW,301,8.0,11.0,-999,-99.99,,,-99.99,,2013-07-03 02:06:00,
2013-07-02 19:15:00,58.0,-99.9,29.91,WNW,298,9.0,11.0,-999,-99.99,,,-99.99,,2013-07-03 02:15:00,
2013-07-02 19:40:00,59.0,-99.9,29.91,WNW,290,6.0,10.0,-999,-99.99,,,-99.99,,2013-07-03 02:40:00,
2013-07-02 19:47:00,58.0,-99.9,29.91,WNW,297,6.0,9.0,-999,-99.99,,,-99.99,,2013-07-03 02:47:00,
2013-07-02 20:01:00,58.0,-99.9,29.91,West,272,6.0,9.0,-999,-99.99,,,-99.99,,2013-07-03 03:01:00,
2013-07-02 20:13:00,58.0,-99.9,29.92,WNW,283,4.0,6.0,-999,-99.99,,,-99.99,,2013-07-03 03:13:00,
2013-07-02 20:36:00,58.0,-99.9,29.92,West,276,3.0,6.0,-999,-99.99,,,-99.99,,2013-07-03 03:36:00,
2013-07-02 20:49:00,58.0,-99.9,29.91,West,277,4.0,6.0,-999,-99.99,,,-99.99,,2013-07-03 03:49:00,
2013-07-02 20:59:00,58.0,-99.9,29.92,West,261,2.0,4.0,-999,-99.99,,,-99.99,,2013-07-03 03:59:00,
2013-07-02 21:02:00,57.0,-99.9,29.91,WNW,289,3.0,4.0,-999,-99.99,,,-99.99,,2013-07-03 04:02:00,
2013-07-02 21:52:00,57.0,-99.9,29.90,WNW,284,3.0,4.0,-999,-99.99,,,-99.99,,2013-07-03 04:52:00,
2013-07-02 22:02:00,57.0,-99.9,29.91,West,277,3.0,4.0,-999,-99.99,,,-99.99,,2013-07-03 05:02:00,
2013-07-02 22:48:00,55.0,-99.9,29.93,South,191,-999.0,1.0,-999,-99.99,,,-99.99,,2013-07-03 05:48:00,
2013-07-02 23:01:00,55.0,-99.9,29.94,SW,233,1.0,1.0,-999,-99.99,,,-99.99,,2013-07-03 06:01:00,
2013-07-02 23:08:00,55.0,-99.9,29.93,WNW,296,1.0,3.0,-999,-99.99,,,-99.99,,2013-07-03 06:08:00,
2013-07-02 23:40:00,54.0,-99.9,29.93,SE,126,3.0,5.0,-999,-99.99,,,-99.99,,2013-07-03 06:40:00,
2013-07-02 23:50:00,54.0,-99.9,29.94,SSE,167,5.0,6.0,-999,-99.99,,,-99.99,,2013-07-03 06:50:00,
2013-07-02 23:58:00,55.0,-99.9,29.94,SE,127,5.0,7.0,-999,-99.99,,,-99.99,,2013-07-03 06:58:00,